Location: *
(49.7115°N, 15.0136°E)
Time: 07:56:28
(UTC+00:00)

Cosmos 1092 Rocket - Pass Details

Date: 27 February 2020
Orbit: 955 x 995 km, 82.9° (Epoch: 30 March)

Event Time Altitude Azimuth Distance (km) Brightness Sun altitude
Rises 18:43:48 0° 350° (N) 3,724 7.3 -21.0°
Reaches altitude 10° 18:46:20 10° 351° (N) 2,772 6.6 -21.4°
Maximum altitude 18:52:44 88° 79° (E) 1,003 3.9 -22.4°
Enters shadow 18:58:48 11° 172° (S) 2,647 6.0 -23.3°
